Voltar ao catálogo

SUPERVIEW-1 03

AtivoCiênciaSSO
NORAD 43099·PAYLOAD·🇨🇳 China

Lançado Jan 9, 2018 de Taiyuan Satellite Launch Center

Loading…

Próximas Passagens (próximas 24 horas)

TLE

AtualizadoSource: Space-Track

Época: Sep 14, 2026, 12:54 UTC

1 43099U 18002A   26257.53754009  .00014268  00000-0  32706-3 0  9993
2 43099  97.3086 342.3888 0043201 216.3725 143.4585 15.41855270482127

Acompanhe SUPERVIEW-1 03 em tempo real com AllMySat

Download on the App Store